Location: Kra?nica
(53.4833°N, 14.6167°E)
Time: 21:09:51
(UTC+00:00)

Cosmos 1709 Rocket - Pass Details

Date: 23 May 2024
Orbit: 948 x 1001 km, 82.9° (Epoch: 21 June)

Event Time Altitude Azimuth Distance (km) Brightness Sun altitude
Exits shadow 01:49:41 - 210° (SSW) 2,911 5.8 -7.2°
Reaches altitude 10° 01:50:09 10° 212° (SSW) 2,746 5.7 -7.1°
Maximum altitude 01:56:18 52° 288° (WNW) 1,223 4.4 -6.5°
Drops below altitude 10° 02:02:33 10° 4° (N) 2,785 7.3 -5.9°
Sets 02:05:11 0° 10° (N) 3,740 8.1 -5.6°
